Weather Roundup
Issued by NWS

Home | Current Version | Previous Version | Text Only | Print | Product List | Glossary On
Versions: 1 2 3 4 5 6 7 8 9 10 11 12 13 14 15 16 17 18 19 20 21 22 23 24 25 26 27 28 29 30 31 32 33 34 35 36 37 38 39 40 41 42 43 44 45 46 47 48 49 50
584
NZUS93 KARX 122210
HRRWXR

CURRENT HOURLY OBSERVATIONS ACROSS
MUCH OF THE UPPER MISSISSIPPI VALLEY
NATIONAL WEATHER SERVICE LA CROSSE WI
400 PM CST FRI FEB 12 2016


...SOUTHEAST MINNESOTA...


CITY           SKY/WX    TMP DP  RH WIND       PRES   REMARKS
ROCHESTER      SUNNY      9  -6  50 N22       30.39R WCI -11
ROCHESTER/MAYO FAIR      10  -9  42 NW20G32   30.40R WCI  -9
WINONA         SUNNY     12  -6  44 NW22      30.44R WCI  -7
AUSTIN         SUNNY      9  -4  56 NW18G26   30.42R WCI -10
ALBERT LEA     SUNNY      9  -4  56 NW15G24   30.44R WCI  -8
DODGE CENTER   SUNNY      9  -6  52 NW21G26   30.40R WCI -11
PRESTON        SUNNY      9  -7  48 NW18G25   30.37R WCI  -9
OWATONNA       SUNNY      9  -6  52 NW23      30.46R WCI -12
FARIBAULT      SUNNY      9  -6  52 W17       30.46R WCI -10
$$

...ELSEWHERE IN MINNESOTA...


CITY           SKY/WX    TMP DP  RH WIND       PRES   REMARKS
MINNEAPOLIS    SUNNY     10  -9  42 NW17      30.49R WCI  -8
INTNL FALLS    SUNNY     -3 -19  46 NW17      30.48R WCI -24
DULUTH         MOSUNNY    1 -16  44 NW18G28   30.37R WCI -20
RED WING       SUNNY     10 -13  34 N15G23    30.45R WCI  -6
REDWOOD FALLS  SUNNY      9  -3  58 NW17G24   30.55R WCI  -9
MANKATO        SUNNY      9  -4  56 NW20G26   30.49R WCI -11
WORTHINGTON    SUNNY      5  -4  66 NW20      30.52R WCI -15
FAIRMONT       PTSUNNY    9  -2  61 NW24      30.48R WCI -12
$$

...SOUTHWEST WISCONSIN...


CITY           SKY/WX    TMP DP  RH WIND       PRES   REMARKS
LA CROSSE      SUNNY     12  -5  46 N23       30.39R WCI  -7
PRAIRIE DU CHI SUNNY     15  -2  47 NW16G28   30.37R WCI  -1
BOSCOBEL       MIX PCPN  18  -3  39 NW14      30.35R WCI   4
LONE ROCK      SUNNY     16  -5  39 NW14G26   30.32R WCI   2
PLATTEVILLE    SUNNY     16   2  55 NW16G22   30.29R WCI   0
FORT MC COY    SUNNY     12  -7  42 NW18G26   30.36R WCI  -5
CAMP DOUGLAS   SUNNY     11  -7  44 NW17G28   30.31R WCI  -6
VIROQUA        FAIR      11  -7  45 NW21G28   30.31R WCI  -8
WIS DELLS      SUNNY     13  -8  38 NW16G26   30.27R WCI  -3
$$

...ELSEWHERE IN WISCONSIN...


CITY           SKY/WX    TMP DP  RH WIND       PRES   REMARKS
MILWAUKEE      MOSUNNY   16  -2  45 N25G31    30.20R WCI  -3
MADISON        MOSUNNY   14  -6  40 NW21G31   30.25R WCI  -4
GREEN BAY      PTSUNNY   10  -6  48 NW18      30.23R WCI  -8
EAU CLAIRE     SUNNY      8 -13  37 NW16G26   30.41R WCI -10
BLACK RVR FLS  FAIR      11 -13  32 NW20G26   30.36R WCI  -7
MEDFORD        MOSUNNY    4 -11  51 NW16G26   30.27R WCI -15
WAUSAU         MOSUNNY    7 -10  46 NW17G26   30.25R WCI -12
WIS RAPIDS     SUNNY      8 -11  41 NW18G33   30.30R WCI -11
MARSHFIELD     SUNNY      7 -10  46 NW25G32   30.28R WCI -15
RICE LAKE      SUNNY      7 -14  37 NW13      30.42R WCI  -9
$$

...NORTHEAST IOWA...


CITY           SKY/WX    TMP DP  RH WIND       PRES   REMARKS
WATERLOO       SUNNY     13  -1  54 NW24G35   30.42R WCI  -7
DUBUQUE        SUNNY     15  -1  49 NW28G33   30.31R WCI  -5
DECORAH        SUNNY     10  -6  48 NW21      30.36R WCI  -9
MASON CITY     SUNNY     10  -1  61 NW21      30.45R WCI  -9
CHARLES CITY   SUNNY     10  -4  52 NW24      30.42R WCI -10
OELWEIN        SUNNY     10   0  61 NW26      30.39R WCI -11
$$

...ELSEWHERE IN IOWA...


CITY           SKY/WX    TMP DP  RH WIND       PRES   REMARKS
DES MOINES     MOSUNNY   17   0  47 N16       30.50R WCI   2
IOWA CITY      SUNNY     19   2  47 NW18G31   30.42R WCI   4
FORT DODGE     SUNNY     10  -2  56 N10G21    30.51R WCI  -3
MARSHALLTOWN   SUNNY     13   2  61 NW24      30.46R WCI  -7
CEDAR RAPIDS   SUNNY     17   2  51 NW23G33   30.39R WCI  -1
$$

...NORTHERN ILLINOIS...


CITY           SKY/WX    TMP DP  RH WIND       PRES   REMARKS
CHICAGO-OHARE  MOSUNNY   21   1  41 NW22G31   30.19R WCI   5
CHICAGO-MIDWAY MOSUNNY   23   0  36 NW23G29   30.20R WCI   7
MOLINE         SUNNY     21  -1  38 NW20G35   30.35R WCI   6
ROCKFORD       MOSUNNY   21   1  41 NW25G36   30.26R WCI   4
PEORIA         SUNNY     26   3  37 NW14G31   30.30R WCI  14
$$

NOTE: "FAIR" INDICATES FEW OR NO CLOUDS BELOW 12,000 FEET WITH NO
SIGNIFICANT WEATHER AND/OR OBSTRUCTIONS TO VISIBILITY. WIND
SPEEDS ARE IN MILES-PER-HOUR.




USA.gov is the U.S. government's official web portal to all federal, state and local government web resources and services.